SCP
1 1 0 0 1 1 0 0 0 0 0 0 0 0 0 0 0 0 0 0 0 0 0 1 1 1 2 1 1 1 1 1 1 1 1 1 1 1 1 1 1 1 1
1 1 0 0 0 1 0 0 0 0 0 0 0 0 0 0 0 0 0 0 0 0 0 1 1 1 2 2 1 1 1 1 1 1 1 1 1 1 1 1 1 1 1
1 1 0 0 0 0 0 0 0 0 0 0 0 0 0 0 0 0 0 0 0 0 0 0 1 1 2 2 1 1 1 1 2 2 1 1 1 1 1 1 1 1 1
1 0 0 0 0 0 0 0 0 0 0 0 0 0 0 0 0 0 0 0 0 0 0 0 1 1 1 1 1 1 1 1 2 2 1 1 1 1 1 1 1 1 1
0 0 0 0 0 0 0 0 0 0 0 0 0 0 0 0 0 0 0 0 0 0 0 0 0 0 1 1 1 1 1 1 1 1 1 1 1 1 1 1 1 1 1
0 0 0 0 0 0 0 0 0 0 0 0 0 0 0 0 0 0 0 0 0 0 1 1 0 0 0 1 1 1 1 1 1 1 1 1 1 1 1 1 1 1 1
0 0 0 0 0 0 0 0 0 0 0 0 0 0 0 0 0 0 0 0 0 1 1 1 1 0 0 0 1 1 1 1 1 1 1 1 1 1 1 1 1 1 1
0 0 0 0 0 0 0 0 0 0 0 0 0 0 0 0 0 0 0 0 0 1 1 1 1 0 0 0 0 0 1 1 1 1 1 1 1 1 1 1 1 1 1
0 0 0 0 0 0 0 0 0 0 0 0 0 0 0 0 0 0 0 0 0 1 1 1 1 0 0 0 0 0 0 1 1 1 1 1 1 1 1 1 1 1 1
0 0 0 0 0 0 0 0 0 0 0 0 0 0 0 0 0 0 0 0 0 0 1 0 0 0 0 0 0 0 0 0 0 1 1 1 1 1 1 1 1 1 1
0 0 0 0 0 0 0 0 0 0 0 0 0 0 0 0 0 0 0 0 0 0 0 0 0 0 0 0 0 0 0 0 0 0 1 1 1 1 1 2 2 2 1
0 0 0 0 0 0 0 0 0 0 0 0 0 0 0 0 0 0 0 0 0 0 0 0 0 0 0 0 0 0 0 0 0 0 0 1 1 1 1 1 2 2 2
0 0 0 0 0 0 0 0 0 0 0 0 0 0 0 0 0 0 0 0 0 0 0 0 0 0 0 0 0 0 0 0 0 0 0 1 0 0 1 1 1 2 2
0 0 0 0 0 0 0 0 0 0 0 0 0 0 0 0 0 0 0 0 0 0 0 0 0 0 0 0 0 0 0 0 0 0 0 0 0 0 0 0 1 1 1
0 0 0 0 0 0 0 0 0 0 0 0 0 0 0 0 0 0 0 0 0 0 0 0 0 0 0 0 0 0 0 0 0 0 0 0 0 0 0 0 0 1 1
0 0 0 0 0 0 0 0 0 0 0 0 0 0 0 0 0 0 0 0 0 0 0 0 0 0 0 0 0 0 0 0 0 0 0 0 0 0 0 0 0 0 0
0 0 0 0 0 0 0 0 0 0 0 0 0 0 0 0 0 0 0 0 0 0 0 0 0 0 0 0 0 0 0 0 0 0 0 0 0 0 0 0 0 0 0
0 0 0 0 0 0 0 0 0 0 0 0 0 0 0 0 0 0 0 0 0 0 0 0 0 0 0 0 0 0 0 0 0 0 0 0 0 0 0 0 0 0 0
0 0 0 0 0 0 0 0 0 0 0 0 0 0 0 0 0 0 0 0 0 0 0 0 0 0 0 0 0 0 0 0 0 0 0 0 0 0 0 0 0 0 0
0 0 0 0 0 0 0 0 0 0 0 0 0 0 0 0 0 0 0 0 0 0 0 0 0 0 0 0 0 0 0 0 0 0 0 0 0 0 0 0 0 0 0
0 0 0 0 0 0 0 0 0 0 0 0 0 0 0 0 0 0 0 0 0 0 0 0 0 0 0 0 0 0 0 0 0 0 0 0 0 0 0 0 0 0 0
0 0 0 0 0 0 0 0 0 0 0 0 0 0 0 0 0 0 0 0 0 0 0 0 0 0 0 0 0 0 0 0 0 0 0 0 0 0 0 0 0 0 0
0 0 0 0 0 0 0 0 0 0 0 0 0 0 0 0 0 0 0 0 0 0 0 0 0 0 0 0 0 0 0 0 0 0 0 0 0 0 0 0 0 0 0
0 0 0 0 0 0 0 0 0 0 0 0 0 0 0 0 0 0 0 0 0 0 0 0 0 0 0 0 0 0 0 0 0 0 0 0 0 0 0 0 0 0 0
0 0 0 0 0 0 0 0 0 0 0 0 0 0 0 0 0 0 0 0 0 0 0 0 0 0 0 0 0 0 0 0 0 0 0 0 0 0 0 0 0 0 0
0 0 0 0 0 0 0 0 0 0 0 0 0 0 0 0 0 0 0 0 0 0 0 0 0 0 0 0 0 0 0 0 0 0 0 0 0 0 0 0 0 0 0
Wind_Speed
1 1 1 1 1 1 1 1 1 2 2 2 2 2 3 3 3 2 2 5 6 7 7 7 8 8 7 7 7 7 7 7 8 8 9 9 10 10 11 10 10 9 9
1 1 1 1 1 1 1 1 2 2 2 2 2 2 3 2 2 2 2 3 5 6 7 7 7 7 6 6 7 7 7 7 8 8 8 9 9 10 11 12 12 11 11
1 1 1 1 1 1 1 1 2 1 2 2 3 3 2 2 2 2 2 2 2 3 4 5 6 6 6 6 6 6 6 6 7 8 8 9 9 10 11 11 12 12 12
2 1 1 2 2 1 1 1 1 1 2 2 2 2 2 2 2 2 1 1 1 1 3 4 4 5 5 5 6 6 7 7 7 7 8 9 9 10 11 11 11 12 13
3 2 1 2 2 2 1 1 1 1 2 2 3 2 2 2 2 2 1 1 1 1 1 2 3 4 5 6 6 7 8 7 7 7 8 9 9 10 11 11 11 11 12
3 2 2 2 2 2 2 2 2 1 1 2 3 3 2 2 1 1 2 1 1 1 1 2 2 2 4 5 7 8 9 9 8 7 8 8 8 9 10 10 10 11 12
3 3 2 3 3 2 2 2 2 2 2 2 2 3 2 2 1 1 1 1 1 1 1 1 1 2 2 5 6 8 9 10 9 9 9 8 8 9 9 10 10 10 10
3 2 3 2 2 2 3 3 2 2 1 2 1 2 3 3 2 1 1 1 1 1 1 1 1 1 2 2 4 7 8 10 10 10 10 9 9 8 9 9 9 9 10
2 2 2 2 2 2 2 3 2 2 2 2 1 0 1 2 3 2 1 1 1 1 1 1 1 2 2 2 3 5 7 9 11 11 11 10 9 9 9 9 10 9 9
2 2 2 2 2 2 2 2 2 1 1 2 2 1 2 2 2 3 3 1 1 1 2 1 1 2 2 2 3 6 7 8 10 11 10 10 9 9 9 9 9 10 10
2 2 2 1 1 1 2 2 2 2 1 2 1 1 2 2 2 3 5 3 2 1 1 1 1 1 2 2 3 5 7 8 9 10 10 10 9 9 10 10 10 9 9
2 2 2 2 2 1 2 2 2 2 2 2 2 1 1 2 2 2 4 4 4 2 2 1 1 1 1 2 3 6 7 8 8 9 10 9 9 10 10 10 10 10 10
2 3 2 2 2 2 2 2 1 2 2 2 2 2 2 2 2 2 3 4 4 3 2 1 1 1 2 1 2 6 6 7 8 9 10 9 9 10 10 10 10 11 11
2 3 2 2 3 2 2 1 1 2 1 2 2 2 2 2 2 2 2 3 4 3 2 3 1 1 1 1 3 5 4 7 8 9 9 9 9 9 10 10 10 10 11
2 3 3 3 3 3 2 2 1 2 2 2 2 2 2 2 2 2 2 3 3 4 4 3 2 1 2 2 4 3 3 6 7 8 8 8 8 8 9 9 10 10 10
3 3 3 3 3 3 2 2 2 2 2 2 2 2 2 2 2 2 2 2 3 4 4 3 2 2 2 3 4 3 3 7 7 7 7 8 8 8 8 9 10 10 10
3 3 3 3 3 3 3 2 3 2 3 3 2 3 3 3 2 2 2 2 3 3 5 4 2 2 2 3 3 3 3 3 3 7 8 7 7 7 8 8 9 10 10
4 4 3 3 4 4 3 3 4 3 3 4 3 3 4 3 3 3 2 3 3 3 4 6 3 2 3 3 3 3 3 3 3 6 8 7 6 7 8 8 9 9 9
4 4 4 4 4 4 4 4 4 4 4 4 4 4 4 3 4 3 3 3 3 3 3 4 4 2 2 2 3 3 3 3 4 5 6 6 7 7 8 8 8 8 8
5 5 5 5 5 5 4 4 4 4 4 4 4 4 4 4 5 4 4 4 3 3 3 3 4 3 3 2 2 3 4 3 3 4 5 5 7 8 8 8 8 8 9
5 5 5 5 5 4 5 5 5 5 5 5 4 4 5 6 7 5 4 3 3 3 3 3 3 3 2 2 2 2 4 4 3 2 3 3 3 3 4 6 7 8 9
5 5 5 6 6 5 8 10 6 5 5 5 5 5 5 6 7 8 8 7 5 4 4 3 3 4 4 3 2 2 3 3 3 1 2 4 2 3 3 3 7 8 9
5 5 6 6 7 8 11 11 10 5 5 5 5 5 4 4 6 4 6 7 6 7 6 4 4 4 4 3 3 3 3 3 4 2 2 4 3 4 3 4 8 8 8
5 5 6 6 6 8 11 11 11 6 5 5 6 6 5 5 5 5 4 3 3 4 4 4 4 4 4 3 3 3 3 3 3 2 1 3 3 3 4 4 6 7 8
5 5 5 6 7 8 11 11 9 4 4 6 6 6 6 6 9 8 5 4 4 4 4 5 5 4 5 4 3 1 1 2 3 2 0 1 2 3 3 3 4 7 8
6 5 5 6 7 7 10 11 9 3 4 5 4 5 9 9 9 9 5 4 5 4 2 2 3 3 3 3 3 1 2 2 2 2 1 1 2 2 4 3 2 3 4
Wind_Direction
38 20 6 9 358 355 351 338 331 328 322 312 306 301 291 282 279 276 286 293 292 287 285 284 281 275 265 258 259 260 256 258 261 261 260 258 259 258 254 250 250 250 252
46 25 10 6 354 344 334 327 323 319 311 309 312 306 292 289 284 285 282 295 299 295 287 286 286 285 280 271 270 272 266 263 266 267 266 265 263 263 263 258 253 251 252
49 46 20 358 336 330 335 340 339 342 336 332 318 309 299 294 292 286 285 286 297 310 305 298 297 291 292 292 288 287 283 274 271 272 270 269 265 263 263 263 260 254 252
39 51 32 356 339 342 344 334 348 340 330 322 310 306 307 301 293 286 291 299 295 306 309 311 309 307 309 311 308 304 301 296 284 277 274 273 271 269 268 265 262 257 254
25 38 30 352 347 352 350 335 344 326 309 313 300 299 303 296 291 297 303 303 301 305 315 330 328 325 326 321 317 315 314 314 310 293 283 278 275 274 271 270 266 264 261
23 24 29 6 1 0 352 343 323 325 303 308 311 312 300 288 285 281 283 299 317 320 336 343 338 336 334 326 323 319 317 316 317 312 305 294 283 281 280 277 275 271 269
23 27 18 11 9 1 340 334 331 328 330 339 339 327 314 294 281 280 290 299 321 317 347 347 339 342 332 330 327 324 322 318 317 315 311 305 296 287 287 285 283 281 276
15 29 25 11 5 354 350 350 354 338 334 6 5 340 330 327 327 311 310 304 298 311 315 321 315 324 319 317 327 329 325 318 316 314 312 309 307 302 294 295 291 289 286
9 23 21 8 6 3 349 343 342 345 326 328 344 306 312 293 313 312 317 332 334 333 303 294 294 297 305 306 305 318 322 318 314 311 311 311 308 306 305 301 301 293 294
359 9 13 6 2 356 347 330 341 317 313 311 311 273 250 253 281 305 306 318 326 305 294 311 304 298 308 305 309 319 321 317 311 311 312 314 314 314 311 312 314 308 300
348 349 353 351 345 338 330 330 331 328 300 283 288 294 286 278 245 260 288 302 313 290 299 304 304 305 316 315 308 325 332 327 323 322 321 322 323 321 319 318 317 318 318
322 330 337 334 324 319 312 311 311 314 306 295 288 281 270 265 258 251 268 286 292 288 296 298 289 290 309 317 321 337 338 335 331 328 325 328 332 332 329 325 322 321 319
301 308 321 312 307 299 296 299 309 306 301 297 283 274 269 265 264 255 260 276 280 284 281 279 265 279 304 311 312 337 336 335 331 326 324 328 336 336 332 328 324 323 321
267 282 291 294 296 299 304 305 304 294 295 285 287 281 272 272 264 254 251 265 285 286 274 267 286 276 303 306 317 338 328 332 328 326 328 334 337 334 332 329 326 325 324
265 270 278 287 294 295 295 298 291 290 287 276 275 282 281 282 277 267 258 247 256 279 282 263 268 296 307 313 327 332 322 327 329 329 333 335 331 330 329 327 326 326 324
260 265 268 274 283 289 292 289 285 285 287 285 280 288 289 290 288 283 271 264 250 252 269 275 268 289 308 314 325 326 313 328 325 324 330 330 328 329 330 328 327 325 324
255 256 257 263 269 273 277 275 275 280 277 284 288 283 284 285 284 286 281 270 263 250 262 277 269 286 292 297 309 311 307 307 309 320 321 320 321 329 331 329 326 324 322
251 249 251 256 261 263 261 257 266 269 266 270 273 273 277 282 281 281 276 269 265 257 256 274 281 280 277 286 297 302 313 317 302 312 314 312 319 324 323 322 323 323 323
253 250 247 250 255 257 257 254 252 256 256 260 261 260 265 263 268 270 267 265 267 271 259 263 275 276 282 297 305 303 302 303 308 313 313 314 317 320 318 317 320 323 325
249 249 247 248 250 252 252 253 253 255 257 259 257 256 256 250 253 258 262 258 262 268 268 266 270 275 276 287 292 299 306 309 306 312 314 311 312 315 316 316 320 322 321
248 247 249 254 253 249 245 245 246 249 254 261 262 259 257 255 257 257 261 257 254 258 262 267 270 275 273 281 281 288 294 304 297 303 307 303 306 302 307 312 315 317 318
250 247 246 250 252 252 258 256 249 244 248 252 260 262 262 258 261 267 267 262 252 250 254 256 262 264 268 263 271 279 291 309 302 309 311 296 291 289 293 290 306 314 319
244 246 247 246 250 255 260 261 254 243 240 246 250 255 263 262 263 259 266 270 265 260 253 244 252 256 262 257 257 267 266 264 265 283 308 289 299 289 292 300 310 311 316
242 246 248 246 249 257 260 262 258 244 239 243 243 243 248 256 252 250 250 258 260 264 261 251 244 256 260 259 244 247 258 273 272 269 258 275 298 289 299 299 305 315 322
246 246 249 246 248 259 260 259 256 241 243 248 243 239 241 247 254 253 242 244 261 268 269 259 259 268 277 277 263 249 268 285 287 283 275 270 296 301 296 288 306 321 322
247 251 253 248 245 253 259 257 251 234 245 253 250 243 246 250 254 254 236 228 246 255 253 271 274 282 288 288 278 238 227 242 269 281 277 282 289 324 312 292 292 307 316